#timestamp,LO_Frequency,Hit,StdDev 
1674252015.4,286046998.9,N
1674252035.2,286046998.4,N
1674252055.1,286046996.9,Y
1674252056.0,286046996.9,P
1674252075.8,286046998.4,N
1674252095.6,286046998.5,N
1674252115.5,286047001.2,N
1674252135.3,286046998.6,N
1674252155.1,286046998.7,N
1674252175.9,286046999.2,N
1674252195.7,286046999.3,N
1674252215.5,286046997.6,N
1674252235.4,286046994.9,Y
1674252255.2,286046997.0,P
1674252275.0,286047001.2,N
1674252275.9,286047001.2,N
1674252295.8,286046999.4,N
1674252315.6,286046998.3,N
1674252335.4,286046996.8,N
1674252355.3,286046996.8,N
1674252375.1,286046999.1,N
1674252376.0,286046999.1,N
1674252395.8,286046998.0,N
1674252415.7,286046998.0,N
1674252435.5,286046995.7,Y
1674252455.3,286046998.7,P
1674252475.2,286047000.8,P
1674252495.9,286047001.2,N
1674252515.7,286046996.5,Y
1674252535.6,286046997.4,P
1674252555.4,286046997.6,N
1674252575.2,286046995.3,P
1674252595.1,286046995.7,N
1674252596.0,286046995.7,N
1674252615.8,286046993.6,Y
1674252635.6,286046996.6,P
1674252655.5,286046998.9,P
1674252675.3,286046998.4,N
1674252695.1,286047001.0,N
1674252715.9,286047000.3,N
1674252735.7,286046998.4,N
1674252755.5,286046998.8,N
1674252775.4,286046998.3,N
1674252795.2,286046999.0,N
1674252815.0,286046998.5,N
1674252815.9,286046998.5,N
1674252835.8,286047001.1,N
1674252855.6,286046995.4,Y
1674252875.4,286047003.5,P
1674252895.3,286047000.0,N
1674252915.1,286046990.7,P
1674252935.8,286047000.4,N
1674252955.7,286047005.0,N
1674252975.5,286047024.0,Y
1674252995.3,286047014.5,P
1674253015.2,286047007.7,N
1674253035.9,286047003.2,N
1674253055.7,286047000.9,N
1674253075.6,286046996.6,N
1674253095.4,286046997.9,N
1674253115.2,286046995.8,N
1674253135.1,286046993.6,N
1674253136.0,286046993.6,N
1674253155.8,286046993.9,N
1674253175.6,286046991.9,N
1674253195.5,286046992.8,N
1674253215.3,286046992.8,N
1674253235.1,286046990.9,N
1674253255.9,286046990.8,N
1674253275.7,286046990.6,N
1674253295.5,286046990.9,N
1674253315.4,286046992.4,N
1674253335.2,286046990.2,N
1674253355.0,286046991.1,N
1674253355.9,286046991.1,N
1674253375.8,286046993.8,N
1674253395.6,286046996.4,N
1674253415.4,286046997.9,N
1674253435.3,286046997.8,N
1674253455.1,286047000.2,N
1674253456.0,286047000.2,N
1674253475.8,286047000.3,N
1674253495.7,286047001.7,N
1674253515.5,286046998.2,N
1674253535.3,286046999.6,N
1674253555.2,286046997.5,N
1674253575.9,286046995.7,N
1674253595.7,286046992.8,N
1674253615.6,286046996.7,N
1674253635.4,286046997.8,N
1674253655.2,286046996.4,N
1674253675.1,286046994.8,N
1674253676.0,286046994.8,N
1674253695.8,286046992.4,N
1674253715.6,286046992.8,N
1674253735.5,286046990.9,N
1674253755.3,286046991.6,N
1674253775.1,286046990.3,N
1674253795.8,286046992.7,N
1674253815.7,286046992.8,N
1674253835.5,286046992.5,N
1674253855.3,286046992.7,N
1674253875.2,286046990.0,N
1674253895.0,286046989.8,Y
1674253895.9,286046989.8,P
1674253915.7,286046997.8,N
1674253935.6,286047001.3,N
1674253955.4,286047004.9,N
1674253975.2,286047024.8,Y
1674253995.1,286047016.0,P
1674253996.0,286047016.0,N
1674254015.8,286047010.8,N
1674254035.7,286047007.2,N
1674254055.5,286047003.5,N
1674254075.3,286047002.8,N
1674254095.1,286047002.6,N
1674254115.9,286047000.1,N
1674254135.7,286047002.7,N
1674254155.5,286046998.8,N
1674254175.4,286046997.1,N
1674254195.2,286046995.8,N
1674254215.0,286046991.7,N
1674254215.9,286046991.7,N
1674254235.8,286046992.4,N
1674254255.6,286046992.8,N
1674254275.4,286046992.5,N
1674254295.3,286046992.3,N
1674254315.1,286046992.7,N
1674254335.8,286046992.8,N
1674254355.7,286046991.0,N
1674254375.5,286046991.3,N
1674254395.3,286046989.1,N
1674254415.2,286046989.7,N
1674254435.9,286046987.4,N
1674254455.7,286046988.4,N
1674254475.6,286046987.9,N
1674254495.4,286046985.8,N
1674254515.2,286046986.0,N
1674254535.1,286046985.4,N
1674254536.0,286046985.4,N
1674254555.8,286046984.4,N
1674254575.6,286046984.9,N
1674254595.5,286046984.4,N
1674254615.3,286046986.4,N
1674254635.1,286046984.1,N
1674254655.9,286046985.1,N
1674254675.7,286046984.5,Y
1674254695.5,286046994.3,P
1674254715.4,286046991.7,P
1674254735.2,286046994.3,P
1674254755.0,286046994.0,Y
1674254755.9,286046994.0,P
1674254775.8,286047001.4,N
1674254795.6,286047002.4,N
1674254815.4,286047000.2,N
1674254835.3,286047002.4,N
1674254855.1,286047002.3,N
1674254856.0,286047002.3,N
1674254875.8,286047000.2,N
1674254895.7,286047000.5,N
1674254915.5,286046999.7,N
1674254935.3,286047001.0,N
1674254955.2,286046998.3,N
1674254975.9,286046998.1,N
1674254995.7,286046998.3,N
1674255015.6,286046999.0,N
1674255035.4,286046999.2,N
1674255055.2,286046999.3,N
1674255075.0,286046999.0,N
1674255076.0,286046999.0,N
1674255095.8,286046999.4,N
1674255145.6,286046998.5,E
1674255155.5,286047000.2,N
1674255175.4,286047002.0,P
1674255195.2,286046999.7,N
1674255215.0,286047002.5,N
1674255215.9,286047002.5,N
1674255235.8,286047000.5,N
1674255255.6,286046998.9,N
1674255275.4,286046998.7,N
1674255295.3,286046998.2,N
1674255315.1,286047001.1,N
1674255335.8,286046998.9,N
1674255355.7,286046999.6,N
1674255375.5,286046999.1,N
1674255395.3,286046997.2,N
1674255415.2,286046997.3,N
1674255435.9,286046997.3,N
1674255455.7,286046994.9,Y
1674255475.6,286046997.4,P
1674255495.4,286046997.7,N
1674255515.2,286046997.7,N
1674255535.1,286046997.8,N
1674255536.0,286046997.8,N
1674255555.8,286046997.8,Y
1674255575.6,286046999.3,P
1674255595.5,286046998.2,N
